Temperature
9 7 7 8 8 9 9 9 9 9 10 9 8 9 9 10 9 9 10 10 11 11 11 11 11 11 11 10 10 10 10 10 10 10 10 9 9 9 9 9 10 10 10 10
7 7 8 9 9 9 9 8 8 8 9 9 8 8 8 9 9 10 10 10 11 11 11 11 11 10 10 10 10 10 9 9 9 9 9 9 9 9 9 9 9 9 9 9
7 8 9 9 8 8 8 8 8 8 8 8 8 7 8 9 9 10 10 10 11 11 10 10 10 10 10 10 10 10 9 9 9 9 9 9 8 9 8 9 9 9 9 9
7 8 8 8 8 8 8 8 8 8 7 6 7 6 7 8 8 8 9 9 10 10 10 10 10 10 10 10 9 9 9 9 9 8 8 8 8 8 8 8 8 8 8 8
6 7 7 7 8 8 8 8 8 8 7 6 6 6 6 7 7 8 7 8 9 10 10 10 10 10 9 9 9 9 9 8 8 8 8 8 8 8 8 8 8 8 8 8
6 7 7 7 7 8 7 7 7 6 6 6 6 6 6 6 7 7 7 8 9 9 9 9 9 9 9 9 9 8 8 8 8 8 8 7 7 7 7 7 7 7 8 8
5 6 6 7 6 7 7 6 6 6 5 6 6 6 6 7 7 7 7 8 9 9 9 9 9 8 8 8 8 8 8 7 7 7 7 7 7 7 7 7 7 7 7 7
4 4 5 6 6 5 5 6 5 6 6 5 6 5 6 7 7 7 8 8 8 8 8 8 8 8 8 8 8 7 7 7 7 7 7 7 7 7 7 7 7 7 7 7
3 4 5 5 6 6 5 5 5 5 5 5 5 5 6 6 6 6 6 6 7 7 7 8 8 8 7 7 7 7 7 7 6 6 6 6 6 6 6 6 6 6 7 6
3 3 4 5 5 5 5 5 4 4 5 5 5 5 5 5 5 5 5 5 6 7 7 7 7 7 7 7 7 6 6 6 6 6 6 6 6 6 6 6 6 6 6 6
3 2 3 3 3 4 4 4 4 3 4 5 5 4 5 5 5 4 4 5 5 6 6 6 6 6 6 6 6 6 6 6 6 6 5 5 6 6 6 6 6 6 6 6
3 1 1 2 3 4 3 3 3 3 3 3 3 4 4 4 4 4 4 4 5 5 5 5 5 5 6 6 5 5 5 5 5 5 5 5 5 5 5 5 5 5 5 5
2 1 1 2 3 2 2 3 3 2 2 2 3 3 4 3 3 3 3 4 4 4 4 4 4 4 5 5 5 5 5 5 5 5 4 5 5 5 5 5 5 5 5 5
3 0 0 1 2 1 1 2 2 2 1 2 2 2 3 3 2 2 3 3 3 3 3 3 3 3 4 4 4 4 4 4 4 4 4 4 4 4 4 4 4 4 4 4
1 -0 0 1 1 1 1 1 1 1 1 1 2 2 2 2 1 2 2 2 2 2 2 2 2 2 3 3 3 3 4 4 3 3 4 4 4 4 4 4 4 4 4 4
-0 -0 -0 -0 1 1 1 1 1 1 1 1 1 1 1 1 1 1 1 1 1 1 1 1 1 1 2 2 2 3 3 3 3 3 3 3 3 3 3 3 3 3 3 3
-1 -1 -1 -1 0 0 -0 -0 0 -0 -0 -0 -0 -0 0 -0 0 0 0 0 0 0 1 1 1 1 1 1 2 2 2 2 2 2 3 2 2 2 3 3 3 3 3 3
-2 -1 -1 -1 -1 -1 -0 -0 -0 -1 -1 -1 -1 -1 -1 -0 -0 0 0 -0 -0 -0 -0 0 0 1 1 1 1 1 2 2 2 2 2 2 2 2 2 2 2 2 2 2
-1 -1 -2 -2 -2 -1 -1 -1 -1 -1 -2 -2 -2 -2 -2 -1 -1 -1 -0 -1 -1 -1 -0 -0 -0 0 0 1 1 1 1 1 1 2 2 2 2 1 2 2 2 2 2 2
-2 -2 -2 -3 -2 -2 -2 -2 -1 -1 -2 -2 -3 -3 -3 -2 -2 -2 -1 -1 -1 -1 -1 -1 -1 -0 -0 0 0 0 0 0 1 1 1 1 1 1 1 1 1 1 1 1
-3 -3 -4 -4 -3 -3 -3 -2 -1 -2 -3 -3 -3 -3 -3 -3 -3 -2 -2 -2 -2 -2 -2 -2 -1 -1 -1 -1 -1 -1 -0 -0 0 0 0 0 0 0 0 0 0 0 0 0
-4 -4 -4 -4 -4 -3 -3 -3 -3 -4 -3 -3 -3 -3 -3 -3 -3 -3 -3 -3 -3 -3 -2 -2 -2 -2 -1 -1 -1 -1 -1 -1 -0 -0 -0 -0 -0 0 0 0 0 -0 -0 -0
-4 -4 -4 -4 -4 -3 -3 -4 -4 -4 -4 -4 -4 -4 -4 -4 -4 -4 -4 -4 -3 -3 -3 -3 -3 -2 -2 -2 -2 -2 -2 -1 -1 -1 -1 -1 -0 -0 -0 -0 -0 -1 -1 -1
-5 -4 -5 -5 -4 -4 -4 -4 -5 -5 -5 -5 -5 -5 -5 -5 -5 -5 -4 -4 -4 -4 -4 -3 -3 -3 -3 -2 -2 -2 -2 -2 -2 -1 -1 -1 -1 -1 -1 -1 -1 -1 -1 -1
-6 -6 -6 -6 -5 -5 -5 -5 -6 -6 -6 -6 -5 -5 -5 -5 -5 -5 -5 -5 -4 -4 -4 -4 -4 -4 -3 -3 -3 -3 -3 -2 -2 -2 -2 -2 -1 -1 -1 -1 -1 -1 -1 -1
-7 -7 -7 -6 -6 -6 -6 -6 -6 -6 -6 -6 -6 -6 -6 -6 -6 -6 -6 -5 -5 -5 -4 -4 -4 -4 -4 -4 -3 -3 -3 -3 -3 -2 -2 -2 -2 -2 -2 -2 -2 -2 -2 -2
Wind_Speed
0 1 5 8 9 6 4 5 7 6 4 4 9 12 11 8 7 8 7 7 7 8 6 5 5 5 4 4 4 5 4 4 3 2 2 2 2 2 1 1 3 4 4 4
2 4 7 5 4 5 6 7 6 6 4 4 8 11 9 8 8 8 8 9 8 6 4 4 4 4 4 4 4 5 5 4 4 3 3 2 2 2 2 1 1 3 4 4
6 5 4 4 3 5 8 8 8 6 6 4 5 8 7 5 5 5 6 7 7 8 8 6 5 5 4 4 4 4 4 4 4 4 2 2 1 1 0 1 1 2 3 4
4 5 3 3 5 5 9 6 6 5 3 5 2 5 7 4 4 5 5 5 6 6 6 6 6 5 4 4 3 3 3 3 3 4 4 4 3 2 3 2 2 2 2 3
4 3 3 4 6 5 6 5 5 6 5 5 4 4 7 3 4 6 5 5 5 5 6 7 6 6 4 3 3 3 3 3 2 3 4 4 2 2 1 1 2 2 1 2
4 3 2 4 4 3 3 3 2 0 2 6 8 6 6 4 5 4 3 3 4 4 5 5 5 4 3 3 3 3 3 2 2 3 3 3 3 2 2 2 2 2 1 1
6 5 3 1 3 3 2 2 1 2 3 7 4 5 6 5 4 4 4 3 3 4 5 5 5 4 4 3 3 3 3 2 2 3 3 3 3 4 5 4 3 3 2 2
4 7 4 2 2 3 3 4 4 5 6 5 2 6 4 3 2 1 2 1 1 3 3 5 5 5 4 4 3 3 3 2 2 2 2 2 3 2 2 3 3 3 3 3
3 6 5 5 3 2 2 4 4 3 2 3 4 3 4 5 5 5 3 3 1 1 2 3 4 4 4 4 3 4 3 2 2 2 2 2 2 2 2 2 2 2 2 2
2 6 6 5 3 2 2 2 1 2 4 5 4 3 2 3 3 3 3 2 2 1 1 1 2 2 2 3 2 2 3 3 2 2 2 2 2 2 2 2 3 2 2 2
1 3 5 4 2 3 1 1 1 2 3 3 3 3 1 1 1 2 2 3 2 1 1 0 0 1 1 1 1 2 1 1 1 1 2 2 2 2 2 2 3 3 2 2
1 1 5 7 6 3 2 2 1 2 4 3 3 3 3 2 3 3 4 4 3 2 1 0 0 1 1 1 1 1 1 1 2 2 1 2 2 1 2 2 3 2 2 2
1 0 4 7 4 3 2 2 2 2 2 3 4 4 3 6 6 6 5 6 5 4 3 2 1 0 0 0 1 1 1 2 1 1 1 2 2 2 2 3 2 2 3 3
2 2 5 7 6 4 6 7 4 1 3 5 6 7 7 9 9 8 7 6 5 5 4 3 2 2 2 1 1 1 2 1 1 1 1 2 3 3 3 3 2 2 2 3
1 4 6 9 9 5 6 7 5 4 5 6 8 7 8 8 8 8 6 6 6 6 6 5 4 4 3 2 2 2 2 2 1 1 2 3 3 3 2 2 2 2 2 3
2 3 4 7 7 5 8 7 7 7 6 8 8 8 6 8 7 7 7 6 5 5 6 6 5 5 4 3 3 3 3 3 2 2 3 3 2 2 3 3 2 2 2 3
3 3 3 6 7 5 5 5 4 3 3 4 6 7 8 8 8 6 6 6 5 6 6 6 6 5 4 4 4 4 4 3 2 2 3 3 3 3 3 3 2 3 3 2
4 4 3 4 3 4 3 2 3 3 3 4 5 7 8 8 8 5 4 5 7 7 7 6 6 6 5 4 4 4 3 3 3 3 3 3 3 3 2 2 3 3 3 3
4 4 2 2 4 5 4 6 6 4 3 6 9 11 11 9 6 5 7 8 7 7 7 6 6 5 5 4 3 3 3 3 3 4 4 3 3 3 3 3 3 3 2 2
3 1 2 2 3 3 4 10 10 2 2 9 10 11 11 10 6 7 10 9 8 8 6 6 6 5 4 4 3 2 3 3 4 4 4 3 3 3 3 3 3 2 2 2
3 2 1 3 4 3 5 10 7 3 6 11 10 10 9 6 6 9 10 9 8 8 7 7 6 5 5 4 2 2 3 4 4 3 3 2 2 2 3 2 2 1 2 2
1 1 2 1 2 4 7 6 4 5 7 9 10 9 9 9 10 10 9 9 9 8 8 7 6 6 6 4 2 2 4 4 3 2 2 2 2 1 1 1 1 1 2 2
1 2 2 2 3 3 3 3 5 6 8 9 10 11 10 10 10 11 10 9 9 8 7 7 6 7 6 4 2 3 4 2 1 1 2 2 1 0 0 1 1 1 1 2
4 3 1 3 4 5 5 5 8 9 9 10 10 11 10 10 11 10 10 9 9 8 8 7 7 6 6 6 4 3 3 2 1 1 1 1 0 0 1 1 1 1 2 2
4 3 3 4 5 6 5 8 10 11 11 11 11 10 10 10 10 10 9 9 8 8 7 6 6 6 6 6 6 4 3 1 1 1 1 1 0 1 1 1 0 1 1 2
2 2 3 4 5 6 9 10 11 11 12 12 12 12 11 10 10 10 9 8 7 7 7 7 7 6 6 5 5 4 3 1 0 1 1 1 0 1 1 1 2 4 2 3
Wind_Direction
335 115 217 222 217 227 223 236 254 259 250 235 246 258 262 251 237 238 236 226 218 217 212 191 182 176 170 175 176 175 170 173 159 156 163 168 188 193 204 213 203 195 189 184
17 248 242 234 233 244 248 254 265 286 274 249 265 270 265 246 232 227 227 224 218 210 199 191 178 165 168 175 177 173 175 177 178 178 183 181 177 197 209 214 217 199 188 187
225 254 265 237 246 251 250 237 247 263 304 297 295 293 269 257 236 233 227 215 205 196 196 193 179 178 171 174 178 178 181 181 181 167 140 107 84 72 182 224 232 221 196 192
257 272 294 267 251 234 253 244 241 245 267 273 222 281 278 255 259 247 239 214 202 197 188 180 179 179 180 183 176 169 172 174 172 155 156 165 181 201 221 216 219 236 201 187
274 284 270 261 261 240 246 267 251 242 229 263 245 231 280 287 256 252 243 221 209 193 179 175 178 179 175 164 158 161 154 154 154 156 166 176 193 208 214 209 205 214 217 189
277 295 269 257 284 256 278 328 300 310 162 247 225 200 275 248 238 252 240 227 211 188 172 166 162 150 139 134 138 142 146 157 162 165 170 181 189 193 196 207 206 208 212 203
321 307 307 335 327 337 21 72 334 284 237 247 216 197 251 268 251 207 198 207 210 177 169 162 156 152 149 145 147 148 154 167 175 177 184 190 194 195 201 202 205 202 210 222
317 298 290 311 251 245 251 187 197 223 226 262 228 215 254 304 321 51 122 125 122 143 164 174 172 167 165 165 163 159 163 174 178 180 193 198 194 196 206 206 204 204 208 216
278 281 310 309 286 197 251 235 219 203 244 247 242 263 315 1 15 21 46 61 62 116 150 173 166 162 163 167 175 174 168 171 186 194 196 203 198 194 204 214 210 208 210 216
225 275 293 310 326 297 238 226 113 201 220 238 245 241 254 317 342 2 359 345 324 354 62 117 154 157 170 177 176 163 166 185 193 192 200 207 206 205 206 206 216 216 213 208
248 250 299 326 262 259 343 324 259 235 229 215 237 258 277 305 351 345 313 318 304 298 229 228 191 150 123 102 122 141 158 175 204 219 218 210 215 210 207 213 225 220 212 203
270 203 269 264 262 275 213 213 162 229 260 236 238 263 355 11 357 349 330 329 327 317 333 329 11 69 78 93 121 155 190 201 228 233 234 232 229 211 210 224 233 219 207 208
332 73 318 326 332 356 332 312 296 267 251 231 234 252 356 3 356 350 343 341 346 349 355 359 13 1 266 230 218 229 225 226 249 254 241 245 244 228 228 233 231 221 211 211
353 206 212 244 273 288 296 308 309 266 243 255 249 266 312 329 334 338 341 345 346 347 350 348 340 327 306 284 253 251 266 263 272 274 254 250 248 237 228 223 222 222 217 213
34 252 249 262 276 278 285 296 296 256 247 245 267 272 302 315 315 324 336 351 359 355 351 344 336 324 318 312 303 289 280 279 266 263 260 253 251 242 227 218 219 222 224 230
335 266 283 280 274 280 293 300 288 276 274 269 280 287 315 315 324 337 342 345 341 337 336 332 326 323 311 301 301 296 287 276 256 245 260 261 244 231 225 224 219 222 233 237
254 243 278 276 294 304 291 296 282 299 308 283 276 289 316 326 324 322 326 329 323 322 324 324 318 308 303 299 292 283 273 279 261 257 261 260 240 224 227 226 220 223 233 232
227 238 244 276 318 256 248 351 329 299 347 351 328 325 323 313 309 317 343 337 328 328 323 321 321 311 305 303 301 297 284 270 259 258 258 253 235 229 224 221 228 234 233 229
221 211 232 259 263 269 325 341 332 292 306 5 344 333 333 333 337 338 347 340 326 322 318 311 310 306 306 308 305 305 294 278 271 265 258 250 235 228 224 228 232 236 223 228
23 112 193 250 257 271 315 321 319 293 305 354 349 339 339 346 341 320 331 332 331 331 330 326 324 322 314 309 311 295 290 288 280 277 271 261 243 226 224 231 235 230 204 212
356 358 263 248 249 266 322 329 351 42 316 333 338 334 335 330 303 307 320 326 326 325 327 328 324 318 310 306 301 278 286 282 284 290 289 279 255 232 223 226 231 203 180 172
299 309 292 291 269 277 340 3 15 313 317 326 329 329 324 317 317 322 324 326 329 329 330 329 324 317 317 314 292 277 276 283 297 299 292 285 270 249 207 176 192 165 153 152
277 242 248 229 244 289 344 334 328 330 321 323 325 323 320 317 319 322 322 323 325 326 329 329 323 318 324 328 311 276 287 290 300 312 293 277 268 267 184 162 159 145 148 152
306 318 283 279 288 312 330 340 339 333 325 321 320 319 320 316 317 320 320 322 324 325 327 328 329 325 325 329 330 309 305 311 328 338 318 290 159 70 50 75 146 157 168 167
299 329 317 284 303 323 334 342 335 330 329 328 328 327 325 322 320 320 317 318 319 322 326 326 325 322 325 334 338 334 333 346 358 350 346 6 66 119 86 61 85 159 187 183
330 314 294 279 304 303 301 316 326 328 327 326 325 325 324 320 314 316 315 316 319 322 326 329 330 331 333 338 339 337 340 342 20 1 349 1 65 85 102 98 59 47 70 86
Height
1494 1497 1498 1495 1494 1494 1495 1495 1494 1490 1486 1488 1486 1483 1478 1476 1476 1475 1474 1475 1475 1477 1479 1481 1483 1484 1485 1486 1486 1487 1489 1490 1491 1491 1492 1493 1494 1496 1497 1498 1499 1500 1501 1502
1498 1497 1492 1491 1492 1492 1493 1494 1493 1490 1486 1486 1485 1480 1475 1472 1471 1470 1470 1470 1471 1473 1475 1478 1479 1481 1481 1482 1483 1484 1486 1487 1488 1489 1490 1491 1492 1493 1494 1495 1496 1497 1498 1499
1496 1493 1490 1490 1491 1491 1490 1492 1491 1491 1487 1484 1485 1480 1474 1468 1467 1466 1466 1466 1468 1470 1471 1474 1475 1477 1478 1479 1480 1481 1483 1484 1485 1487 1487 1488 1489 1490 1492 1492 1493 1494 1495 1496
1494 1491 1490 1490 1490 1490 1489 1486 1487 1487 1491 1492 1488 1491 1475 1469 1467 1465 1464 1463 1464 1466 1468 1470 1472 1473 1475 1476 1478 1479 1480 1482 1483 1484 1485 1486 1486 1487 1488 1489 1490 1491 1492 1493
1495 1492 1491 1491 1489 1487 1486 1484 1485 1485 1488 1491 1488 1491 1479 1470 1468 1464 1462 1461 1462 1463 1465 1467 1469 1470 1472 1474 1475 1477 1478 1479 1480 1481 1482 1483 1484 1485 1486 1486 1487 1488 1489 1490
1495 1492 1491 1489 1487 1485 1485 1485 1485 1487 1490 1491 1484 1489 1481 1473 1466 1462 1461 1460 1460 1461 1463 1465 1467 1469 1470 1472 1473 1474 1475 1476 1478 1478 1480 1481 1481 1482 1483 1483 1484 1485 1486 1487
1498 1493 1490 1489 1488 1486 1486 1491 1493 1492 1492 1485 1478 1483 1478 1466 1461 1460 1459 1459 1459 1460 1462 1463 1464 1466 1468 1469 1471 1472 1473 1474 1475 1476 1477 1478 1479 1479 1480 1480 1481 1482 1483 1484
1506 1501 1492 1490 1490 1490 1488 1489 1493 1491 1488 1484 1478 1480 1472 1463 1460 1458 1458 1458 1458 1459 1460 1462 1463 1464 1466 1467 1468 1469 1470 1471 1472 1473 1474 1475 1476 1476 1477 1478 1479 1479 1480 1481
1509 1502 1492 1489 1488 1488 1488 1487 1485 1489 1487 1487 1481 1476 1469 1462 1460 1460 1459 1459 1459 1459 1460 1460 1462 1463 1464 1465 1466 1467 1468 1469 1470 1470 1471 1472 1473 1473 1474 1475 1476 1476 1477 1478
1506 1505 1496 1491 1488 1487 1487 1486 1489 1488 1483 1480 1477 1478 1475 1467 1464 1463 1462 1460 1459 1460 1460 1460 1461 1461 1462 1463 1464 1465 1466 1467 1467 1468 1468 1469 1470 1470 1471 1472 1472 1473 1474 1475
1505 1507 1501 1496 1493 1490 1490 1489 1488 1488 1486 1482 1478 1479 1469 1468 1465 1465 1463 1461 1460 1459 1459 1459 1460 1460 1461 1461 1462 1463 1463 1464 1464 1465 1465 1466 1466 1467 1467 1468 1469 1470 1471 1472
1504 1507 1506 1498 1490 1489 1488 1489 1491 1493 1488 1485 1482 1481 1468 1467 1466 1465 1463 1461 1460 1459 1459 1459 1459 1459 1459 1460 1460 1461 1461 1462 1462 1462 1463 1463 1463 1463 1464 1465 1466 1466 1467 1468
1505 1508 1509 1499 1496 1493 1491 1489 1488 1488 1488 1487 1484 1480 1469 1468 1466 1466 1464 1462 1460 1459 1458 1458 1458 1458 1458 1458 1458 1458 1459 1459 1459 1460 1459 1459 1460 1460 1460 1461 1462 1463 1464 1464
1503 1507 1509 1506 1498 1496 1494 1491 1488 1489 1490 1486 1482 1477 1472 1470 1468 1467 1465 1462 1461 1459 1458 1458 1457 1457 1456 1456 1456 1456 1456 1457 1457 1456 1456 1456 1456 1456 1457 1457 1458 1459 1460 1461
1504 1506 1503 1498 1494 1493 1492 1489 1488 1487 1485 1485 1478 1477 1474 1472 1470 1467 1465 1462 1461 1460 1458 1457 1456 1455 1454 1454 1454 1453 1453 1453 1453 1453 1453 1453 1453 1453 1454 1454 1455 1456 1456 1457
1504 1505 1502 1498 1492 1491 1489 1487 1486 1484 1483 1480 1477 1476 1475 1472 1469 1466 1464 1462 1460 1459 1458 1456 1455 1453 1452 1452 1451 1451 1450 1450 1450 1450 1450 1450 1450 1450 1450 1451 1451 1452 1452 1453
1505 1504 1503 1499 1492 1490 1491 1488 1485 1484 1483 1481 1480 1478 1473 1470 1467 1466 1463 1461 1459 1457 1456 1454 1453 1452 1451 1450 1449 1448 1447 1447 1447 1446 1446 1446 1447 1447 1447 1448 1448 1448 1448 1449
1503 1503 1502 1498 1496 1499 1490 1486 1485 1483 1482 1480 1478 1476 1473 1470 1466 1463 1461 1460 1458 1456 1454 1452 1451 1449 1448 1447 1446 1445 1444 1444 1444 1443 1443 1443 1443 1444 1444 1444 1444 1444 1445 1445
1498 1499 1501 1499 1498 1491 1489 1487 1486 1484 1482 1481 1479 1475 1471 1468 1463 1461 1460 1459 1457 1454 1452 1450 1449 1448 1446 1444 1443 1442 1441 1441 1440 1440 1440 1440 1440 1440 1440 1440 1440 1441 1441 1441
1497 1498 1502 1501 1499 1495 1495 1488 1483 1482 1483 1481 1479 1476 1473 1468 1466 1463 1459 1457 1454 1452 1450 1448 1447 1445 1443 1442 1441 1439 1438 1437 1437 1437 1437 1437 1437 1437 1437 1437 1437 1437 1438 1438
1503 1504 1505 1504 1502 1497 1495 1489 1484 1489 1490 1484 1481 1478 1474 1471 1469 1464 1459 1456 1453 1450 1448 1446 1444 1442 1441 1439 1438 1436 1435 1435 1434 1434 1434 1434 1434 1434 1434 1434 1434 1435 1435 1435
1508 1508 1507 1505 1504 1502 1494 1491 1493 1493 1489 1485 1481 1478 1474 1470 1465 1461 1458 1454 1451 1448 1446 1444 1441 1439 1437 1436 1435 1433 1432 1432 1432 1432 1431 1431 1431 1431 1431 1431 1432 1432 1432 1433
1508 1508 1505 1505 1504 1499 1496 1495 1493 1491 1488 1484 1480 1476 1472 1468 1463 1460 1456 1452 1449 1446 1444 1441 1439 1437 1434 1433 1432 1431 1430 1430 1429 1429 1429 1429 1429 1429 1429 1429 1429 1430 1430 1431
1507 1504 1504 1502 1499 1497 1495 1493 1491 1489 1486 1482 1478 1474 1470 1465 1461 1457 1454 1450 1447 1444 1441 1439 1437 1434 1432 1430 1429 1428 1427 1427 1427 1426 1426 1426 1426 1427 1427 1427 1427 1428 1428 1429
1508 1506 1505 1502 1499 1496 1493 1492 1490 1486 1483 1479 1475 1471 1467 1463 1459 1456 1452 1449 1445 1442 1440 1437 1434 1432 1429 1428 1426 1425 1425 1424 1424 1424 1424 1424 1424 1425 1425 1425 1426 1426 1427 1427
1509 1508 1507 1504 1501 1499 1495 1491 1488 1484 1480 1476 1472 1467 1464 1461 1457 1454 1450 1447 1444 1441 1438 1435 1432 1429 1427 1425 1424 1423 1423 1422 1422 1422 1422 1422 1423 1423 1423 1424 1424 1425 1425 1426